Temperature
29 28 26 25 25 26 26 27 27 27 26 25 25 25 25 26 26 25 25 25 24 24 23 23 22 22 21 20 20 20 19 19 18 18 18 18 18 17 17 17 17 17 17 16
28 28 28 27 27 27 27 28 28 28 27 26 25 24 25 25 25 25 25 24 24 24 23 23 22 22 21 21 20 20 20 19 19 18 18 18 17 17 17 17 17 17 17 16
27 27 27 26 27 27 28 29 29 27 27 26 25 24 23 24 24 24 24 23 23 23 23 22 22 22 21 21 21 20 20 19 19 19 18 18 17 17 17 17 17 16 16 16
26 26 24 27 28 27 27 28 28 27 27 26 25 23 23 22 22 22 22 21 21 21 21 21 21 21 21 21 20 20 20 19 19 18 18 18 17 17 17 17 17 17 16 16
25 25 25 25 25 25 25 26 27 27 26 25 24 23 22 21 21 20 20 20 20 20 20 20 20 21 21 20 20 19 19 18 18 18 18 17 17 17 16 16 16 16 16 16
25 24 23 23 23 24 24 23 25 25 25 25 25 23 20 20 19 19 19 19 19 19 19 19 19 20 20 19 19 19 18 18 18 17 17 17 17 16 16 16 15 15 15 15
24 24 23 23 23 23 22 22 24 24 24 23 22 21 19 18 18 18 17 17 17 18 18 17 18 18 18 18 18 18 17 17 17 17 16 16 16 15 15 15 15 15 15 15
23 23 21 22 22 22 21 23 23 23 22 21 20 19 18 17 17 16 16 16 16 16 16 16 17 17 17 16 16 16 16 16 16 16 15 15 15 15 15 15 14 14 14 14
20 20 20 21 21 21 22 22 22 22 22 20 19 18 17 17 16 15 15 15 15 15 15 15 15 15 15 15 15 15 15 15 15 15 15 15 14 14 14 14 14 14 14 14
18 19 20 20 21 21 21 21 22 21 21 20 19 18 17 16 15 15 15 15 14 14 14 14 14 14 14 14 14 14 14 14 14 14 14 14 14 14 13 13 13 13 13 13
19 20 20 20 20 21 20 21 20 20 19 18 17 16 16 15 15 14 14 14 14 13 13 13 13 13 13 13 13 13 13 13 13 13 13 13 13 13 13 13 13 13 13 13
19 20 20 20 20 20 20 20 19 18 18 17 17 16 15 15 14 14 14 13 13 13 12 12 12 12 12 12 12 12 12 12 13 13 13 13 13 13 13 13 13 12 12 12
19 20 20 19 19 19 19 18 18 17 17 16 16 15 15 14 14 13 13 13 13 12 12 12 12 12 12 12 12 12 12 12 12 12 12 12 13 13 13 13 12 12 12 12
19 19 19 18 18 18 18 17 17 16 16 15 15 14 14 14 13 13 13 13 12 12 12 12 12 11 11 11 11 11 11 12 12 12 12 12 12 12 12 12 12 12 12 12
18 18 18 17 17 17 17 17 16 15 15 14 14 14 13 13 13 13 12 12 12 12 12 11 11 11 11 11 11 11 11 11 11 11 11 12 12 12 12 12 12 11 11 11
18 17 17 17 16 16 16 15 15 14 14 14 13 13 13 13 12 12 12 12 12 11 11 11 11 10 10 10 10 10 11 11 11 11 11 11 11 11 11 11 11 11 10 10
17 16 16 15 15 15 14 14 14 14 13 13 13 13 13 12 12 12 12 11 11 11 11 10 10 10 10 10 10 10 10 11 11 11 11 11 11 10 10 10 10 10 9 9
16 15 15 14 14 14 13 13 13 13 13 13 13 12 12 12 12 12 11 11 11 11 10 10 10 10 10 9 9 9 10 10 10 10 10 10 10 10 9 9 9 9 8 8
14 14 14 13 13 13 13 13 13 13 12 12 12 12 12 12 11 11 11 11 11 10 10 10 10 9 9 9 9 9 9 9 10 10 9 9 9 9 9 8 8 7 7 7
13 13 13 13 13 13 12 12 12 12 12 12 12 12 11 11 11 11 11 10 10 10 10 10 9 9 9 9 9 9 9 9 9 9 9 8 8 8 7 7 7 6 6 6
13 13 13 13 12 12 12 12 12 12 12 12 11 11 11 11 11 10 10 10 10 10 9 9 9 9 8 8 8 8 8 8 8 8 8 7 7 7 6 6 5 5 5 5
12 12 12 12 12 12 12 12 12 11 11 11 11 11 11 10 10 10 10 10 9 9 9 8 8 8 8 8 7 7 7 7 7 7 6 6 6 5 5 5 4 4 4 4
12 12 12 12 12 11 11 11 11 11 11 11 11 10 10 10 10 10 9 9 9 8 8 8 8 7 7 7 7 6 6 6 6 5 5 5 5 4 4 4 4 3 3 3
11 11 11 11 11 11 11 11 11 11 10 10 10 10 10 10 10 9 9 9 8 8 7 7 7 6 6 6 6 6 5 5 5 4 4 4 4 3 3 3 3 3 3 2
10 10 11 11 11 11 11 11 10 10 10 10 10 10 9 9 9 8 8 8 7 7 7 6 6 5 5 5 5 5 4 4 4 3 3 3 3 3 2 2 2 2 2 2
10 10 10 10 10 10 10 10 10 10 10 9 9 9 9 8 8 8 7 7 6 6 6 5 5 5 4 4 4 4 3 3 3 3 2 2 2 2 2 2 2 1 1 1
10 10 10 10 10 10 10 10 10 9 9 9 9 8 8 8 7 7 7 6 6 5 5 5 4 4 4 4 3 3 3 2 2 2 2 2 1 1 1 1 1 1 1 1
Wind_Speed
13 8 10 10 12 14 14 12 10 6 4 4 4 3 2 3 5 6 7 7 7 8 10 10 10 10 11 11 12 12 13 13 12 11 10 9 9 9 9 9 11 9 9 9
13 11 10 10 13 14 14 13 12 8 3 8 9 6 3 4 3 3 4 5 6 6 8 10 11 11 10 10 10 10 11 12 11 11 11 10 10 9 9 9 9 9 9 9
12 10 9 12 11 10 11 9 8 5 4 10 10 7 6 5 4 4 4 4 3 2 4 6 8 10 11 10 10 10 11 11 11 11 12 11 11 10 10 10 10 9 9 9
11 8 12 6 3 4 6 4 1 4 7 9 11 10 8 8 7 7 7 6 4 3 4 3 4 7 7 8 8 8 9 9 8 9 10 10 10 10 10 8 8 8 8 9
9 10 9 3 3 2 4 3 5 7 9 11 12 12 11 10 10 9 9 8 7 6 5 5 4 3 4 4 5 5 5 5 5 6 6 6 7 7 7 7 8 8 8 8
9 8 6 1 2 3 2 1 5 7 7 8 7 7 7 9 11 11 10 10 9 10 11 10 7 6 6 5 4 4 3 3 3 3 3 5 5 5 5 5 6 7 7 7
11 8 1 3 0 2 2 2 5 9 9 8 9 9 11 11 11 11 12 12 13 13 13 12 11 10 9 8 6 5 5 4 4 3 3 3 3 3 3 4 5 6 5 6
8 7 1 3 2 2 4 3 5 9 12 14 15 15 14 13 12 12 12 13 13 12 12 11 12 11 11 9 7 6 6 5 4 3 1 2 2 2 2 2 3 4 5 6
2 3 5 6 6 4 3 5 6 9 13 15 15 15 14 13 12 12 12 12 11 12 12 12 12 11 11 8 6 6 5 5 4 3 2 2 1 1 1 2 3 3 3 4
2 3 4 6 8 7 6 6 8 11 13 14 15 14 13 12 11 11 11 11 10 11 11 11 11 11 9 8 7 7 6 5 3 3 2 2 2 1 0 1 1 2 2 3
4 3 4 7 7 9 8 10 12 13 14 14 15 14 13 12 11 10 10 10 10 10 10 10 10 10 9 8 7 6 5 4 3 2 2 1 0 1 1 0 0 2 3 3
3 3 4 5 6 8 9 12 13 14 14 14 14 14 14 12 10 10 10 9 10 10 10 9 9 8 8 8 7 6 5 4 4 3 2 2 1 1 2 3 3 4 4 4
5 5 8 8 8 10 12 14 14 14 15 14 14 14 13 11 10 9 9 9 9 8 8 7 7 8 7 7 7 6 5 4 4 4 3 3 3 3 2 3 5 7 8 8
8 9 11 11 11 12 14 15 15 16 15 14 13 12 11 10 9 9 8 8 7 7 7 6 6 6 6 6 6 6 6 5 4 5 5 5 4 4 4 4 3 3 5 9
9 10 12 13 13 13 14 14 15 14 14 13 12 11 10 9 8 8 7 7 6 6 6 7 7 7 6 6 6 7 7 5 5 5 5 5 5 5 5 5 5 5 5 2
11 13 14 14 14 13 13 13 13 12 11 11 10 10 9 8 7 6 6 6 6 6 5 5 6 6 6 6 6 6 5 6 6 6 6 6 6 6 6 7 7 6 6 6
11 12 12 13 12 12 11 11 10 10 10 9 8 7 6 6 5 4 4 4 4 4 4 5 5 5 6 7 8 8 8 7 7 7 6 6 6 7 7 7 8 7 7 7
12 12 12 12 11 11 10 10 9 8 6 5 5 5 4 4 3 3 2 2 2 2 3 4 4 5 5 5 6 8 9 9 8 7 7 6 6 7 7 7 8 9 8 8
14 14 13 12 11 10 9 7 6 6 5 4 4 4 3 3 3 3 3 3 2 2 2 3 3 5 5 4 6 7 9 9 9 7 7 7 6 6 7 7 8 8 8 9
13 12 12 11 9 8 6 5 4 4 3 3 3 3 3 3 3 3 3 2 2 2 3 3 3 5 5 6 7 8 10 9 9 8 7 8 7 7 7 8 8 8 8 9
10 9 8 8 7 6 5 3 2 2 3 3 3 2 2 2 3 3 2 2 2 4 4 2 2 4 6 7 9 9 9 9 9 8 8 8 8 8 8 8 8 8 8 8
7 6 6 5 5 4 3 2 2 2 2 2 2 3 3 3 2 2 1 1 2 3 3 4 4 6 7 9 8 9 8 8 8 7 7 8 7 7 7 8 8 8 8 8
6 6 5 4 4 3 2 2 2 3 3 3 4 4 4 4 3 3 2 2 2 2 3 4 5 5 9 7 7 7 8 8 8 8 7 7 7 7 7 8 8 8 8 8
4 4 4 3 3 3 3 3 4 3 4 4 3 3 3 3 2 1 2 4 5 3 3 4 4 6 8 5 5 6 7 7 7 7 8 7 7 7 7 7 8 8 8 10
3 3 3 4 4 4 3 4 3 3 4 3 3 3 3 3 4 4 4 3 3 1 2 3 1 4 5 5 6 6 6 6 7 7 7 7 7 7 7 7 8 8 8 9
3 3 3 5 5 4 4 4 3 3 4 3 2 2 3 3 3 3 2 4 4 3 3 3 3 3 4 5 6 6 6 6 6 6 7 7 8 8 7 8 9 8 8 8
4 3 2 3 3 4 4 4 4 4 3 3 4 4 4 3 3 4 4 3 3 4 4 4 4 5 5 6 5 5 5 6 6 6 7 7 7 7 8 9 8 8 9 9
Wind_Direction
250 216 193 206 226 245 253 259 263 251 231 174 139 117 133 127 122 141 154 158 154 164 168 170 173 175 179 183 183 185 184 188 191 190 191 194 196 197 195 194 202 203 206 210
249 240 229 232 222 231 243 250 254 250 195 128 118 114 107 91 110 149 147 162 164 164 166 172 174 178 181 183 183 179 182 189 190 187 190 197 198 199 199 200 205 200 206 213
247 253 259 246 238 242 247 251 261 258 135 126 118 107 91 79 70 55 66 87 90 129 150 164 173 175 178 182 181 181 185 191 190 189 193 197 201 200 205 204 206 207 208 214
242 234 248 253 315 309 287 266 181 116 107 111 108 100 85 72 64 53 43 45 58 81 87 125 168 173 173 180 182 184 187 191 191 192 197 197 200 203 205 205 207 211 214 218
247 243 251 274 333 341 332 11 48 102 108 110 114 101 77 65 66 58 47 41 43 52 77 76 72 116 134 143 154 162 178 189 187 185 190 194 208 211 205 206 209 212 215 222
235 240 251 177 2 11 7 50 58 86 102 120 130 113 92 74 69 62 55 52 54 55 54 57 57 72 96 98 103 117 132 137 131 141 173 187 200 211 205 206 215 219 221 223
234 236 176 79 181 197 212 133 74 86 86 91 90 95 103 90 79 71 64 60 58 58 55 48 48 62 68 65 60 62 72 89 102 124 147 165 180 187 202 211 217 223 233 232
242 238 134 43 56 69 96 98 89 95 99 99 101 101 99 92 83 74 68 64 62 62 57 48 50 59 63 53 43 49 53 52 63 78 112 153 148 167 184 218 235 236 245 252
20 71 79 68 85 103 118 107 102 104 108 113 111 108 103 96 89 82 77 72 68 67 61 51 46 50 54 43 39 47 53 48 40 51 54 43 104 177 199 218 237 255 258 263
70 54 68 76 71 65 74 91 96 101 107 111 110 106 101 97 93 86 79 76 74 72 67 57 50 49 46 39 37 48 50 45 36 32 39 30 12 18 358 291 272 291 305 306
126 107 89 60 62 77 84 92 93 95 99 104 104 101 99 93 88 84 79 75 73 74 72 67 60 52 44 37 32 30 32 30 23 32 26 24 347 318 289 21 254 269 296 308
85 64 84 77 75 87 94 93 96 99 97 96 98 98 94 90 85 82 80 77 74 72 71 68 64 57 47 37 31 24 18 8 350 348 8 317 269 244 214 218 207 216 230 251
85 92 93 86 88 96 97 95 94 94 94 93 92 93 92 89 84 83 81 78 76 75 72 68 63 53 42 33 25 18 5 357 343 342 336 320 320 318 308 248 234 238 240 243
73 86 85 89 91 91 96 98 96 94 92 91 91 91 90 87 81 76 72 72 73 70 67 62 56 51 36 25 15 359 346 354 338 341 341 335 337 327 316 312 306 290 247 232
71 89 95 94 94 95 97 100 98 95 93 91 88 85 82 79 76 72 65 62 59 55 51 48 43 36 25 17 6 349 341 340 343 332 320 318 320 318 318 323 322 317 316 281
89 94 96 94 91 91 90 91 92 91 90 89 86 82 80 77 72 68 61 53 46 43 41 39 34 22 11 4 350 329 321 319 318 317 316 320 327 330 332 332 326 326 331 340
97 97 97 96 93 89 88 89 92 93 90 87 84 81 79 71 64 57 46 42 46 49 49 43 26 9 3 5 350 335 330 323 305 308 317 327 334 334 333 327 327 330 332 345
94 95 97 97 96 93 88 85 85 86 88 89 84 73 63 54 40 42 33 28 55 59 47 37 14 345 351 8 344 327 321 321 322 324 326 333 334 325 323 326 329 330 331 333
89 90 89 88 88 86 85 85 84 80 74 65 59 50 42 38 26 23 25 20 11 7 16 30 352 319 331 360 335 311 312 315 318 323 326 330 321 322 328 330 331 333 332 332
90 90 90 89 89 88 86 80 75 71 63 52 48 41 28 18 358 359 8 355 2 21 27 21 338 330 340 7 342 317 316 320 323 327 331 329 333 340 344 340 336 337 338 335
94 95 95 94 88 83 79 72 62 52 52 45 33 11 360 339 321 321 313 328 41 22 353 357 353 351 2 348 317 315 324 330 332 334 335 339 345 346 343 342 340 340 339 335
86 87 87 86 83 72 60 44 40 24 15 353 327 321 318 311 312 319 326 335 34 32 342 351 21 24 358 331 321 326 334 336 337 342 348 349 346 343 346 351 350 346 344 342
69 68 66 58 51 42 20 6 359 348 334 320 313 315 319 326 320 319 335 38 45 32 348 19 36 15 339 324 328 338 347 355 357 356 356 356 355 353 353 352 346 341 340 339
55 42 31 15 4 350 339 338 342 333 321 316 321 331 319 307 322 358 36 76 66 40 29 68 35 349 324 330 349 360 6 6 3 359 354 354 354 353 353 349 346 345 342 342
20 356 349 339 329 338 334 313 314 317 314 332 347 8 7 4 2 14 20 40 76 50 64 104 27 325 334 359 10 11 13 20 10 359 360 357 354 354 356 353 351 347 348 351
347 330 350 334 329 320 314 324 329 338 340 345 348 354 353 352 358 11 30 34 39 42 25 29 26 356 8 22 26 17 15 20 15 11 8 2 0 0 0 356 353 355 355 356
305 304 297 307 326 334 337 340 336 343 346 343 342 347 345 350 3 21 35 39 32 32 37 33 23 20 23 32 34 31 28 24 17 11 8 8 6 2 359 357 2 3 360 358
Height
1434 1436 1445 1451 1454 1452 1453 1451 1454 1453 1454 1454 1454 1456 1457 1458 1459 1461 1464 1467 1470 1474 1477 1481 1485 1489 1493 1496 1499 1502 1505 1507 1510 1512 1515 1518 1520 1522 1524 1526 1528 1529 1531 1532
1435 1433 1436 1442 1441 1442 1443 1442 1442 1442 1447 1448 1451 1456 1458 1458 1460 1462 1463 1466 1468 1471 1474 1478 1481 1485 1489 1492 1495 1498 1501 1503 1506 1509 1511 1513 1516 1518 1519 1521 1523 1525 1526 1528
1441 1434 1438 1446 1437 1436 1436 1433 1435 1443 1444 1446 1452 1457 1460 1460 1461 1462 1464 1466 1467 1470 1472 1474 1477 1481 1484 1488 1491 1494 1496 1499 1502 1504 1506 1509 1511 1513 1515 1517 1519 1520 1522 1524
1438 1444 1459 1438 1428 1430 1432 1432 1432 1437 1441 1445 1452 1457 1461 1462 1463 1465 1466 1467 1468 1470 1471 1473 1476 1478 1481 1484 1486 1488 1491 1494 1497 1500 1502 1505 1507 1509 1511 1513 1514 1516 1518 1519
1441 1445 1443 1437 1434 1435 1441 1439 1436 1438 1443 1448 1454 1458 1463 1465 1466 1468 1469 1469 1470 1470 1470 1472 1474 1476 1479 1482 1484 1486 1488 1490 1493 1496 1498 1501 1503 1504 1506 1509 1510 1511 1513 1515
1440 1449 1454 1446 1440 1437 1444 1450 1441 1441 1445 1449 1452 1459 1469 1469 1470 1470 1471 1471 1471 1470 1470 1471 1472 1475 1477 1480 1483 1484 1486 1488 1490 1492 1494 1496 1498 1500 1501 1504 1505 1508 1509 1510
1439 1444 1443 1442 1440 1440 1455 1457 1446 1445 1449 1452 1456 1462 1469 1471 1472 1473 1474 1473 1473 1472 1472 1473 1473 1474 1477 1480 1482 1484 1486 1487 1488 1489 1491 1494 1495 1497 1498 1500 1502 1503 1504 1505
1438 1445 1454 1443 1442 1447 1452 1448 1447 1449 1452 1456 1461 1466 1470 1472 1474 1475 1476 1476 1476 1475 1475 1476 1476 1476 1478 1480 1482 1483 1485 1486 1487 1488 1490 1491 1493 1494 1496 1497 1498 1499 1501 1501
1446 1450 1448 1445 1447 1448 1449 1450 1451 1452 1455 1459 1464 1468 1472 1475 1477 1478 1479 1479 1479 1479 1479 1480 1480 1480 1481 1483 1484 1485 1485 1486 1487 1487 1489 1490 1491 1491 1492 1494 1495 1496 1497 1497
1449 1448 1447 1447 1447 1449 1451 1453 1454 1456 1460 1463 1467 1471 1474 1477 1480 1481 1482 1483 1483 1484 1484 1484 1484 1485 1485 1486 1486 1486 1486 1487 1487 1488 1489 1490 1490 1490 1491 1492 1492 1493 1493 1493
1450 1448 1448 1449 1450 1451 1453 1455 1458 1461 1464 1467 1470 1474 1477 1480 1483 1484 1485 1487 1487 1487 1487 1488 1488 1488 1488 1488 1488 1488 1488 1488 1489 1489 1489 1489 1489 1490 1490 1490 1491 1490 1490 1490
1451 1450 1450 1453 1453 1455 1457 1460 1463 1466 1469 1471 1474 1477 1480 1483 1486 1488 1489 1490 1490 1491 1491 1492 1492 1491 1491 1491 1490 1490 1490 1490 1491 1491 1490 1490 1489 1489 1488 1488 1488 1488 1487 1487
1450 1450 1452 1455 1457 1459 1461 1464 1467 1470 1473 1476 1479 1481 1484 1487 1489 1491 1492 1493 1494 1494 1495 1495 1495 1494 1494 1493 1493 1493 1492 1492 1492 1491 1490 1490 1489 1488 1487 1486 1486 1485 1484 1483
1452 1454 1456 1459 1461 1463 1465 1468 1471 1474 1477 1480 1483 1486 1488 1490 1492 1493 1495 1496 1496 1497 1497 1497 1497 1497 1496 1496 1495 1494 1494 1493 1492 1491 1490 1489 1488 1487 1486 1485 1484 1483 1482 1480
1456 1458 1461 1463 1465 1468 1470 1473 1475 1479 1482 1485 1487 1489 1491 1493 1495 1496 1497 1498 1498 1499 1499 1499 1498 1498 1498 1497 1496 1495 1494 1493 1491 1490 1489 1488 1487 1485 1484 1483 1482 1480 1479 1477
1461 1463 1466 1468 1471 1473 1476 1478 1481 1484 1486 1488 1490 1492 1494 1495 1497 1497 1498 1499 1499 1499 1500 1499 1499 1499 1498 1497 1496 1495 1493 1492 1491 1489 1488 1487 1485 1484 1483 1481 1480 1478 1476 1474
1466 1469 1471 1474 1476 1479 1481 1483 1486 1488 1490 1492 1494 1495 1496 1497 1498 1499 1499 1500 1500 1500 1500 1499 1499 1498 1498 1496 1495 1494 1492 1491 1489 1488 1486 1485 1483 1482 1481 1479 1477 1475 1473 1471
1471 1473 1475 1478 1480 1483 1485 1487 1489 1491 1493 1495 1496 1497 1497 1498 1499 1499 1499 1500 1500 1499 1499 1498 1498 1497 1497 1495 1494 1493 1491 1490 1488 1486 1484 1482 1481 1479 1478 1476 1474 1472 1470 1467
1475 1477 1480 1482 1484 1486 1488 1490 1492 1493 1495 1496 1497 1497 1498 1498 1499 1499 1499 1499 1499 1498 1498 1497 1496 1496 1495 1493 1492 1491 1489 1487 1485 1483 1481 1479 1478 1476 1474 1473 1471 1468 1466 1463
1480 1482 1484 1485 1487 1489 1491 1493 1494 1495 1496 1497 1497 1498 1498 1498 1499 1498 1498 1498 1497 1497 1496 1496 1495 1494 1493 1491 1489 1488 1487 1485 1483 1480 1478 1477 1475 1473 1471 1469 1467 1465 1462 1460
1484 1486 1488 1489 1491 1492 1493 1494 1495 1496 1497 1497 1497 1498 1498 1498 1498 1497 1496 1496 1495 1494 1494 1493 1492 1491 1490 1488 1487 1486 1484 1482 1480 1478 1476 1474 1472 1470 1468 1466 1464 1461 1459 1456
1488 1489 1490 1492 1493 1494 1495 1495 1496 1496 1497 1497 1497 1497 1497 1496 1496 1495 1495 1494 1494 1493 1492 1491 1490 1488 1487 1485 1484 1483 1481 1479 1477 1475 1473 1471 1469 1467 1465 1463 1460 1458 1455 1453
1490 1491 1492 1493 1494 1495 1495 1495 1496 1496 1496 1496 1496 1495 1495 1495 1494 1494 1493 1492 1491 1490 1490 1488 1487 1485 1484 1483 1482 1480 1478 1476 1475 1473 1471 1469 1467 1465 1463 1460 1458 1456 1453 1450
1492 1493 1494 1494 1494 1495 1495 1495 1495 1495 1495 1494 1494 1493 1493 1493 1492 1491 1490 1489 1489 1488 1487 1485 1484 1483 1481 1480 1479 1477 1476 1474 1472 1471 1470 1468 1466 1463 1461 1459 1456 1453 1451 1448
1493 1494 1494 1494 1494 1494 1494 1493 1493 1493 1493 1492 1492 1492 1491 1491 1490 1489 1488 1487 1486 1486 1485 1483 1482 1481 1480 1479 1477 1476 1474 1472 1470 1469 1468 1466 1464 1462 1460 1457 1455 1452 1449 1446
1494 1494 1493 1494 1493 1493 1493 1492 1492 1491 1491 1491 1491 1490 1489 1489 1488 1488 1486 1485 1484 1484 1483 1482 1481 1479 1479 1477 1476 1475 1473 1471 1470 1468 1467 1465 1463 1461 1459 1456 1454 1451 1448 1445
1493 1493 1493 1493 1492 1492 1491 1491 1491 1490 1490 1489 1489 1489 1488 1487 1487 1486 1485 1484 1483 1482 1481 1481 1480 1479 1478 1476 1475 1474 1473 1471 1470 1468 1466 1464 1462 1460 1458 1456 1453 1450 1447 1444